Regional Weather Roundup
Issued by NWS

Home | Current Version | Previous Version | Text Only | Print | Product List | Glossary On
Versions: 1 2 3 4 5 6 7 8 9 10 11 12 13 14 15 16 17 18 19 20 21 22 23 24 25 26 27 28 29 30 31 32 33 34 35 36 37 38 39 40 41 42 43 44 45 46 47 48 49 50
000
ASUS43 KLOT 301012
RWRIL

ILLINOIS REGIONAL WEATHER ROUNDUP
NATIONAL WEATHER SERVICE CHICAGO/ROMEOVILLE IL
500 AM CDT THU JUL 30 2015

NOTE: "FAIR" INDICATES FEW OR NO CLOUDS BELOW 12,000 FEET WITH NO
SIGNIFICANT WEATHER AND/OR OBSTRUCTIONS TO VISIBILITY.

* THESE STATIONS ARE NOT UNDER NWS QUALITY CONTROL. THEY ALSO MAY NOT
  REPORT WEATHER SUCH AS PRECIPITATION OR FOG.

ILZ001-002-007-009-015-016-024-301100-
NORTHWEST ILLINOIS

CITY           SKY/WX    TMP DP  RH WIND       PRES   REMARKS
MOLINE         FAIR      63  58  83 SW5       30.09R
STERLING*      CLEAR     63  57  82 W8        30.06S
SAVANNA*       CLEAR     66  59  77 W6        30.07R
$$

ILZ003-004-008-010-011-017-018-301100-
NORTH CENTRAL ILLINOIS

CITY           SKY/WX    TMP DP  RH WIND       PRES   REMARKS
ROCKFORD       CLEAR     64  57  78 W3        30.06R
FREEPORT*      CLEAR     61  57  87 SW5       30.07S
ROCHELLE*      CLEAR     58  57  97 SW6       30.07R
DE KALB*       CLEAR     64  59  85 W8        30.06R
PERU*          CLEAR     65  59  81 W12       30.07S
$$

ILZ005-006-012>014-019>023-301100-
NORTHEAST ILLINOIS

CITY           SKY/WX    TMP DP  RH WIND       PRES   REMARKS
CHICAGO-OHARE  CLEAR     68  58  70 W7        30.02S
CHICAGO-MIDWAY CLEAR     71  57  61 W8        30.03R
AURORA         CLEAR     61  57  87 W5        30.05S
LANSING*       CLEAR     66  55  68 W5        30.04R
JOLIET*        CLEAR     66  60  80 W6        30.05R
WAUKEGAN       CLEAR     66  57  72 VRB5      30.00S
DUPAGE AIRPORT CLEAR     65  58  78 W8        30.04R
KANKAKEE*      CLEAR     62  60  93 W5        30.07R
WHEELING       CLEAR     68  56  65 W6        30.03R
MORRIS*        CLEAR     63  59  88 W8        30.05R
ROMEOVILLE*    CLEAR     63  58  83 W6        30.05R
NORTHERLY ISL    N/A     71  58  63 W7          N/A
$$

LMZ740>746-301100-
SOUTHERN LAKE MICHIGAN

STATION/POSITION SKY/WX   TEMP    WIND        PRES    VSBY  WAVE
                          AIR SEA DIR/SP/G                  HT/PER
                          (F)     (DEG/KT/KT) (MB)    (MI)  (FT/S)
HARRISON CRIB              72     280/ 16/ 18   N/A
BURNHAM HARBOR             71     280/  7/ 10   N/A
BURNS HARBOR               71     260/ 11/ 13 1016.6F
MICHIGAN CITY              73     240/ 15/ 17   N/A
MICHIGAN CITY 6N           74 73  290/ 14/ 17   N/A           3/ 4
ST. JOSEPH                 73 73  330/ 14/ 16   N/A           3/ 4
$$

ILZ025>027-034>036-040-047-049-050-058-095>099-301100-
WEST-CENTRAL ILLINOIS

CITY           SKY/WX    TMP DP  RH WIND       PRES   REMARKS
QUINCY         CLEAR     66  60  81 W6        30.13S
GALESBURG*     CLEAR     64  59  85 W5        30.11S
MACOMB*        CLEAR     62  60  94 W5        30.14R
JACKSONVILLE*  CLEAR     65  61  87 W5        30.12S
PITTSFIELD*    CLEAR     66  61  84 CALM      30.14S
$$

ILZ028>032-037-038-041>044-048-051>054-059>061-301100-
CENTRAL ILLINOIS

CITY           SKY/WX    TMP DP  RH WIND       PRES   REMARKS
PONTIAC        CLEAR     62  61  95 W5        30.09R
BLOOMINGTON    CLEAR     67  61  81 W9        30.11R
DECATUR        CLEAR     69  59  70 NW7       30.10S
PEORIA         CLEAR     70  58  65 NW6       30.10S
LACON*         CLEAR     66  59  76 CALM      30.08S
LINCOLN*       CLEAR     67  60  79 W3        30.10S
SPRINGFIELD    CLEAR     63  60  90 W5        30.12R
TAYLORVILLE    CLEAR     61  59  94 CALM      30.11S
$$

ILZ033-039-045-046-055>057-062-063-301100-
EAST-CENTRAL ILLINOIS

CITY           SKY/WX    TMP DP  RH WIND       PRES   REMARKS
CHAMPAIGN      CLEAR     62  59  90 W6        30.10R
DANVILLE*      CLEAR     62  60  91 W6        30.05S
RANTOUL*       CLEAR     64  61  91 W7        30.09R
MATTOON        CLEAR     62  57  83 NW6       30.09R
PARIS*         CLEAR     62  60  93 NW3       30.09S
$$

ILZ079-100>102-301100-
SOUTHWEST ILLINOIS

CITY           SKY/WX    TMP DP  RH WIND       PRES   REMARKS
ALTON          CLEAR     65  59  80 CALM      30.12R
BELLEVILLE     CLEAR     65  62  90 NW3       30.10S
CAHOKIA*       CLEAR     65  61  87 CALM      30.12R
SPARTA*        CLEAR     67  60  77 CALM      30.12R
$$

ILZ064>066-069>071-074>076-080>082-084>086-088>090-092>094-301100-
SOUTH-CENTRAL ILLINOIS

CITY           SKY/WX    TMP DP  RH WIND       PRES   REMARKS
CARBONDALE     CLEAR     66  64  93 CALM      30.10S
CAIRO*         CLEAR     70  64  81 N3        30.09S
EFFINGHAM*     CLEAR     63  58  83 CALM      30.11S
MARION         CLEAR     66  64  94 CALM      30.11S
MT. VERNON     CLEAR     68  55  64 N5        30.11S
CENTRALIA*     CLEAR     62  59  89 N3        30.11R
SALEM*         CLEAR     66  61  82 CALM      30.11S
METROPOLIS*    CLEAR     70  65  86 CALM      30.10R
$$

ILZ067-068-072-073-078-083-087-091-301100-
SOUTHEAST ILLINOIS

CITY           SKY/WX    TMP DP  RH WIND       PRES   REMARKS
LAWRENCEVILLE  CLEAR     64  60  87 NW3       30.08S
FLORA*         CLEAR     65  60  83 NW5       30.10S
FAIRFIELD*     CLEAR     65  60  86 CALM      30.09S
HARRISBURG*    CLEAR     68  63  82 N3        30.10S
ROBINSON*      CLEAR     62  60  94 CALM      30.10R
CARMI*         CLEAR     65  58  78 CALM      30.08F
$$

ABBREVIATIONS USED IN REMARKS
   TC - TEMPERATURE IN CELSIUS
  WCI - WIND CHILL INDEX
   HX - HEAT INDEX
  VSB - VISIBILITY
$$



USA.gov is the U.S. government's official web portal to all federal, state and local government web resources and services.